When you browse on this site, cookies collect data to enhance your experience and personalize the content and advertising you see.
Visit our Privacy Policy to learn more. By continuing to use the site, you agree to this use of cookies and data.
EN

Hourly Weather Gogolewko

Today, 23 September, Wednesday

Time Temperature Precipitation Wind Pressure Humidity
00:00 +17°C° 0 mm 3 mps 749 mmHg 69%
01:00 +17°C° 0 mm 3 mps 749 mmHg 72%
02:00 +16°C° 0 mm 3 mps 749 mmHg 74%
03:00 +16°C° 0 mm 3 mps 748 mmHg 77%
04:00 +14°C° 0 mm 3 mps 748 mmHg 79%
05:00 +16°C° 0 mm 3 mps 748 mmHg 78%
06:00 +16°C° 0 mm 3 mps 748 mmHg 78%
07:00 +17°C° 0 mm 3 mps 748 mmHg 74%
08:00 +19°C° 0 mm 4 mps 748 mmHg 67%
09:00 +21°C° 0 mm 4 mps 748 mmHg 61%
10:00 +23°C° 0 mm 4 mps 748 mmHg 54%
11:00 +25°C° 0 mm 4 mps 748 mmHg 51%
12:00 +26°C° 0 mm 4 mps 748 mmHg 47%
13:00 +27°C° 0 mm 4 mps 748 mmHg 43%
14:00 +27°C° 0 mm 3 mps 747 mmHg 45%
15:00 +26°C° 0 mm 3 mps 747 mmHg 47%
16:00 +26°C° 0 mm 3 mps 747 mmHg 49%
17:00 +24°C° 0 mm 3 mps 747 mmHg 53%
18:00 +21°C° 0 mm 3 mps 747 mmHg 58%
19:00 +20°C° 0 mm 3 mps 747 mmHg 62%
20:00 +19°C° 0 mm 2 mps 747 mmHg 64%
21:00 +19°C° 0 mm 2 mps 746 mmHg 66%
22:00 +18°C° 0 mm 2 mps 746 mmHg 68%
23:00 +18°C° 0 mm 2 mps 746 mmHg 71%

Tomorrow, 24 September, Thursday

Time Temperature Precipitation Wind Pressure Humidity
00:00 +17°C° 0 mm 2 mps 746 mmHg 74%
01:00 +17°C° 0 mm 2 mps 746 mmHg 76%
02:00 +17°C° 0.1 mm 2 mps 746 mmHg 79%
03:00 +17°C° 0.1 mm 3 mps 746 mmHg 82%
04:00 +16°C° 0.1 mm 3 mps 745 mmHg 85%
05:00 +17°C° 0.1 mm 3 mps 745 mmHg 84%
06:00 +17°C° 0.1 mm 3 mps 745 mmHg 84%
07:00 +17°C° 0.1 mm 4 mps 745 mmHg 84%
08:00 +19°C° 0 mm 4 mps 745 mmHg 75%
09:00 +21°C° 0 mm 4 mps 745 mmHg 66%
10:00 +22°C° 0 mm 5 mps 746 mmHg 56%
11:00 +23°C° 0 mm 5 mps 746 mmHg 54%
12:00 +23°C° 0 mm 5 mps 746 mmHg 51%
13:00 +25°C° 0 mm 5 mps 746 mmHg 48%
14:00 +23°C° 0.1 mm 4 mps 746 mmHg 52%
15:00 +23°C° 0.1 mm 4 mps 746 mmHg 56%
16:00 +22°C° 0.1 mm 3 mps 746 mmHg 60%
17:00 +21°C° 0.4 mm 2 mps 746 mmHg 69%
18:00 +20°C° 0.4 mm 1 mps 747 mmHg 77%
19:00 +18°C° 0.4 mm 1 mps 747 mmHg 86%
20:00 +18°C° 0 mm 1 mps 747 mmHg 87%
21:00 +16°C° 0 mm 1 mps 747 mmHg 89%
22:00 +16°C° 0 mm 1 mps 747 mmHg 90%
23:00 +16°C° 0 mm 1 mps 747 mmHg 91%

Day after tomorrow, 25 September, Friday

Time Temperature Precipitation Wind Pressure Humidity
00:00 +15°C° 0 mm 1 mps 747 mmHg 92%
01:00 +15°C° 0 mm 1 mps 746 mmHg 93%
02:00 +15°C° 0 mm 1 mps 746 mmHg 93%
03:00 +15°C° 0 mm 2 mps 745 mmHg 92%
04:00 +15°C° 0 mm 2 mps 745 mmHg 92%
05:00 +15°C° 0 mm 2 mps 745 mmHg 89%
06:00 +15°C° 0 mm 2 mps 744 mmHg 87%
07:00 +16°C° 0 mm 3 mps 744 mmHg 84%
08:00 +17°C° 0 mm 4 mps 743 mmHg 78%
09:00 +19°C° 0 mm 5 mps 742 mmHg 72%
10:00 +21°C° 0 mm 5 mps 742 mmHg 65%
11:00 +22°C° 0 mm 6 mps 741 mmHg 61%
12:00 +23°C° 0 mm 6 mps 740 mmHg 57%
13:00 +23°C° 0 mm 6 mps 739 mmHg 52%
14:00 +22°C° 0.6 mm 6 mps 739 mmHg 62%
15:00 +20°C° 0.6 mm 6 mps 738 mmHg 72%
16:00 +19°C° 0.6 mm 5 mps 738 mmHg 82%
17:00 +16°C° 0.1 mm 6 mps 738 mmHg 83%
18:00 +15°C° 0.1 mm 6 mps 739 mmHg 83%
19:00 +14°C° 0.1 mm 6 mps 739 mmHg 83%
20:00 +14°C° 0 mm 6 mps 739 mmHg 83%
21:00 +13°C° 0 mm 6 mps 740 mmHg 84%
22:00 +13°C° 0 mm 5 mps 741 mmHg 84%
23:00 +12°C° 0 mm 5 mps 741 mmHg 84%

26 September, Saturday

Time Temperature Precipitation Wind Pressure Humidity
00:00 +11°C° 0 mm 4 mps 741 mmHg 84%
01:00 +10°C° 0 mm 3 mps 742 mmHg 84%
02:00 +10°C° 0 mm 2 mps 742 mmHg 85%
03:00 +10°C° 0 mm 2 mps 742 mmHg 85%
04:00 +9°C° 0 mm 2 mps 742 mmHg 85%
05:00 +10°C° 0 mm 2 mps 742 mmHg 83%
06:00 +11°C° 0 mm 1 mps 743 mmHg 80%
07:00 +11°C° 0 mm 1 mps 743 mmHg 77%
08:00 +12°C° 0.1 mm 1 mps 743 mmHg 77%
09:00 +12°C° 0.1 mm 2 mps 743 mmHg 77%
10:00 +12°C° 0.1 mm 2 mps 743 mmHg 76%
11:00 +12°C° 1.2 mm 2 mps 743 mmHg 81%
12:00 +10°C° 1.2 mm 3 mps 742 mmHg 86%
13:00 +10°C° 1.2 mm 4 mps 742 mmHg 91%
14:00 +10°C° 3.4 mm 4 mps 742 mmHg 92%
15:00 +9°C° 3.4 mm 5 mps 742 mmHg 93%
16:00 +9°C° 3.4 mm 6 mps 742 mmHg 94%
17:00 +10°C° 3 mm 6 mps 741 mmHg 94%
18:00 +10°C° 3 mm 6 mps 741 mmHg 94%
19:00 +10°C° 3 mm 7 mps 741 mmHg 94%
20:00 +10°C° 1.4 mm 6 mps 741 mmHg 94%
21:00 +10°C° 1.4 mm 6 mps 741 mmHg 94%
22:00 +10°C° 1.4 mm 6 mps 741 mmHg 94%
23:00 +10°C° 1.1 mm 6 mps 740 mmHg 95%

27 September, Sunday

Time Temperature Precipitation Wind Pressure Humidity
00:00 +10°C° 1.1 mm 5 mps 740 mmHg 95%
01:00 +12°C° 1.1 mm 5 mps 739 mmHg 96%
02:00 +12°C° 1.9 mm 5 mps 739 mmHg 97%
03:00 +13°C° 1.9 mm 5 mps 738 mmHg 97%
04:00 +13°C° 1.9 mm 4 mps 738 mmHg 98%
05:00 +14°C° 0.6 mm 5 mps 737 mmHg 94%
06:00 +15°C° 0.6 mm 5 mps 737 mmHg 89%
07:00 +15°C° 0.6 mm 6 mps 736 mmHg 85%
08:00 +16°C° 0 mm 6 mps 737 mmHg 83%
09:00 +17°C° 0 mm 7 mps 737 mmHg 81%
10:00 +17°C° 0 mm 7 mps 737 mmHg 79%
11:00 +17°C° 0 mm 7 mps 737 mmHg 80%
12:00 +17°C° 0 mm 6 mps 737 mmHg 81%
13:00 +17°C° 0 mm 5 mps 737 mmHg 82%
14:00 +16°C° 0.3 mm 5 mps 738 mmHg 83%
15:00 +16°C° 0.3 mm 5 mps 738 mmHg 84%
16:00 +15°C° 0.3 mm 5 mps 738 mmHg 86%
17:00 +14°C° 0 mm 5 mps 739 mmHg 87%
18:00 +13°C° 0 mm 5 mps 739 mmHg 88%
19:00 +12°C° 0 mm 5 mps 740 mmHg 90%
20:00 +10°C° 0 mm 5 mps 741 mmHg 88%
21:00 +9°C° 0 mm 6 mps 741 mmHg 86%
22:00 +9°C° 0 mm 6 mps 742 mmHg 85%
23:00 +8°C° 0 mm 6 mps 743 mmHg 84%

28 September, Monday

Time Temperature Precipitation Wind Pressure Humidity
00:00 +8°C° 0 mm 6 mps 744 mmHg 83%
01:00 +8°C° 0 mm 5 mps 744 mmHg 83%
02:00 +8°C° 0 mm 5 mps 745 mmHg 82%
03:00 +8°C° 0 mm 5 mps 746 mmHg 82%
04:00 +8°C° 0 mm 5 mps 746 mmHg 81%
05:00 +7°C° 0 mm 5 mps 747 mmHg 81%
06:00 +7°C° 0 mm 5 mps 747 mmHg 81%
07:00 +7°C° 0 mm 4 mps 748 mmHg 81%
08:00 +8°C° 0 mm 5 mps 748 mmHg 73%
09:00 +9°C° 0 mm 5 mps 748 mmHg 65%
10:00 +12°C° 0 mm 5 mps 749 mmHg 56%
11:00 +12°C° 0 mm 5 mps 749 mmHg 53%
12:00 +13°C° 0 mm 5 mps 749 mmHg 50%
13:00 +14°C° 0 mm 5 mps 749 mmHg 47%
14:00 +14°C° 0 mm 5 mps 749 mmHg 49%
15:00 +13°C° 0 mm 4 mps 749 mmHg 51%
16:00 +13°C° 0 mm 4 mps 750 mmHg 53%
17:00 +12°C° 0 mm 4 mps 750 mmHg 57%
18:00 +11°C° 0 mm 3 mps 750 mmHg 60%
19:00 +10°C° 0 mm 3 mps 750 mmHg 64%
20:00 +9°C° 0 mm 3 mps 751 mmHg 65%
21:00 +9°C° 0 mm 3 mps 751 mmHg 66%
22:00 +9°C° 0 mm 3 mps 751 mmHg 67%
23:00 +9°C° 0 mm 3 mps 751 mmHg 68%
Show more